Wetbulb
63.07 59.43 59.44 58.27 49.40 49.30 45.19 50.83 55.52 55.60 56.52 60.36 62.15 61.67 57.79 60.44 60.41 54.56 66.99 73.16 74.40 74.31 75.05 75.62 76.46 75.69 75.16 75.24 75.53 75.85 76.13 76.00 75.83 75.70 75.65 75.58 75.48 75.30 75.30 75.15 75.25 75.05 75.23 75.05 75.12 75.24 75.24 75.31 75.31
60.14 57.84 54.74 50.82 45.75 41.82 44.64 53.95 53.47 55.86 59.45 62.09 62.46 59.27 57.25 56.35 65.09 64.42 67.57 73.01 74.55 74.39 73.95 75.03 76.48 76.18 75.26 75.15 75.63 75.90 75.65 75.43 75.48 75.38 75.12 74.75 74.98 74.80 74.75 74.72 74.62 74.49 74.64 74.57 74.86 74.97 75.19 75.20 75.08
60.01 57.14 50.80 46.92 44.44 42.83 45.71 53.64 54.58 58.12 61.46 61.71 61.20 63.53 64.19 61.67 65.41 67.27 70.53 73.68 74.15 73.79 74.12 74.65 76.70 76.43 75.65 75.60 75.73 76.17 76.20 76.10 76.03 75.68 75.48 75.32 75.00 74.65 74.55 74.57 74.29 74.16 74.29 74.50 74.55 74.65 74.82 74.73 74.76
51.53 51.23 49.00 45.56 44.27 49.90 51.70 55.17 55.94 58.19 60.62 62.47 63.28 62.33 67.75 68.86 67.24 70.07 73.61 74.38 73.84 74.04 74.73 76.46 77.02 76.80 76.48 75.88 75.93 76.45 76.52 76.33 76.38 76.10 75.85 75.50 75.35 75.37 75.45 75.57 75.53 74.94 74.84 74.41 74.41 75.29 75.27 74.85 74.95
50.05 47.22 42.32 41.01 43.99 50.99 54.58 57.09 57.43 57.70 59.03 60.53 62.98 62.26 65.08 69.48 71.02 73.06 73.21 73.43 73.12 73.53 73.96 75.19 76.85 76.83 76.61 75.92 75.50 75.15 73.96 73.43 73.38 73.48 73.44 73.75 73.68 73.47 74.68 73.85 73.18 73.70 73.94 74.12 74.62 74.36 74.52 74.70 74.78
46.11 45.65 40.17 38.66 46.77 52.79 55.90 57.28 58.26 57.90 57.20 62.43 63.55 62.52 63.90 71.32 71.21 72.12 72.64 72.56 73.77 73.62 74.24 74.48 76.28 76.60 76.12 75.50 73.83 73.10 72.57 72.72 72.73 72.63 72.29 72.29 72.39 72.10 71.66 72.27 72.29 72.37 72.52 71.34 71.16 71.55 71.47 71.58 71.73
44.33 41.34 38.69 40.09 46.03 49.97 54.86 57.83 55.89 55.38 59.94 60.65 64.95 60.52 63.99 68.22 70.84 71.52 71.51 72.47 73.50 73.42 73.28 72.92 73.32 74.09 74.79 73.94 73.31 72.65 72.88 72.24 71.88 71.84 71.54 71.16 70.95 70.84 70.51 70.50 71.21 70.92 71.43 69.86 69.73 69.91 70.06 69.87 69.58
45.24 43.39 39.25 40.72 47.03 47.74 54.98 57.20 57.50 57.29 58.48 63.11 65.95 59.05 60.39 67.23 70.68 70.59 70.40 70.59 70.77 71.55 71.60 69.73 67.17 66.48 67.29 68.19 73.36 72.93 72.35 72.08 71.56 71.15 70.13 67.87 67.23 67.44 68.66 68.80 69.73 69.22 68.36 68.67 68.62 68.73 68.67 68.78 67.85
46.78 41.91 39.44 42.01 43.57 46.92 53.93 53.81 55.58 58.40 58.11 60.82 63.65 63.08 66.01 69.77 67.36 68.70 68.64 68.95 68.96 68.12 63.86 62.18 60.41 59.45 63.31 66.52 69.55 70.42 70.47 69.22 67.75 67.06 67.47 63.37 61.01 61.34 62.07 67.18 67.47 67.59 66.92 66.28 66.04 66.01 66.28 65.79 64.05
44.43 41.14 43.19 46.44 46.68 48.04 53.44 54.75 55.64 55.82 57.04 59.78 62.83 66.10 68.88 68.62 64.63 67.06 67.00 66.58 64.43 60.82 60.14 59.19 58.99 59.36 60.25 63.77 59.36 61.19 63.25 61.56 61.20 60.17 59.56 59.11 58.96 62.03 62.52 62.93 65.68 64.97 66.27 64.70 64.53 64.10 63.39 62.19 57.94
43.27 42.83 45.94 46.84 49.24 50.67 55.00 55.27 55.99 56.79 54.48 60.11 61.43 64.77 67.52 66.24 62.79 66.49 67.13 63.49 58.78 58.73 60.03 58.95 58.35 58.58 58.90 57.84 56.91 57.29 58.34 60.31 60.12 60.28 58.49 57.49 57.73 58.13 58.57 56.69 56.75 56.79 62.12 57.54 58.31 56.87 56.53 57.09 57.00
41.13 46.23 45.41 47.17 48.93 55.18 54.28 55.97 53.85 58.85 58.51 63.81 65.27 66.75 67.08 64.27 63.46 66.36 61.77 59.64 59.54 59.48 59.48 59.14 58.80 58.42 58.58 57.66 55.93 56.10 58.04 57.51 57.76 57.68 58.80 56.69 56.14 55.87 57.64 55.85 55.76 56.15 56.74 56.06 55.96 54.97 55.00 55.99 56.52
42.96 46.36 47.78 47.10 47.22 52.12 55.54 53.22 52.04 57.61 61.26 65.44 65.43 67.19 66.19 64.14 65.75 65.64 60.05 60.31 60.05 59.50 59.39 59.13 59.18 58.46 57.84 57.72 56.06 54.88 56.14 56.61 56.56 58.06 57.80 57.04 56.00 55.22 57.12 55.97 56.45 55.97 56.50 56.28 54.75 54.50 55.24 55.44 56.08
45.87 45.80 46.01 45.05 45.63 46.78 52.39 47.61 53.40 54.58 62.70 60.83 63.56 65.35 65.83 65.13 59.24 58.75 59.73 59.63 59.87 60.23 59.71 59.19 57.86 57.89 57.97 56.79 56.18 55.22 56.06 55.97 57.25 57.08 56.63 56.37 55.52 55.35 56.46 55.58 56.13 55.94 55.98 55.19 54.20 54.67 53.71 54.09 54.01
46.25 43.45 44.72 46.04 44.19 46.22 49.05 46.08 49.87 56.88 61.98 57.62 56.98 61.11 63.40 58.25 59.44 59.36 60.22 59.54 60.01 60.15 59.79 58.34 56.84 56.67 57.38 56.89 56.50 55.48 55.97 56.00 55.00 54.98 55.74 55.77 54.83 55.00 54.53 54.14 54.48 55.59 55.16 53.65 54.15 53.85 53.04 53.18 53.60
43.03 41.74 38.99 42.98 45.16 46.23 45.68 41.92 47.49 51.79 56.83 54.36 55.29 56.41 58.16 57.82 59.36 60.45 60.57 59.60 59.58 58.96 58.16 58.88 60.71 57.85 56.51 56.03 55.45 55.01 54.74 54.79 54.32 53.50 53.88 55.51 55.81 55.35 53.21 52.83 52.70 54.04 52.83 52.96 52.68 51.87 51.29 51.12 51.63
39.86 38.05 38.59 42.22 44.10 44.18 44.11 41.71 47.13 50.17 55.96 52.49 54.71 56.08 56.95 57.34 57.97 59.76 60.47 59.96 59.39 57.93 57.41 57.67 57.72 56.96 56.23 55.39 54.76 54.02 54.06 54.35 53.70 52.98 52.32 54.31 55.07 55.87 52.89 52.07 52.05 52.47 51.89 51.61 51.36 50.98 50.21 50.18 50.62
36.69 37.65 38.80 39.32 43.63 42.63 40.98 42.14 46.15 47.54 52.76 51.57 54.39 55.29 56.26 56.85 57.50 59.16 59.56 59.71 58.38 57.44 57.43 58.05 58.33 55.96 55.61 54.77 53.77 52.95 53.54 53.76 53.37 52.04 52.18 53.87 53.86 55.62 52.82 51.61 51.98 51.67 50.68 50.65 50.50 49.26 50.08 50.08 50.56
41.05 39.05 38.34 41.28 45.95 42.36 42.14 43.94 47.02 48.93 48.14 45.04 49.25 52.76 54.32 56.15 57.99 58.97 59.55 59.06 58.42 57.74 57.57 58.14 57.20 56.57 56.52 54.06 52.38 51.17 50.72 51.73 52.75 51.97 53.65 53.35 53.83 54.81 52.10 51.13 50.92 50.68 49.48 49.61 49.73 49.25 48.78 49.57 49.60
41.71 39.28 40.61 43.24 46.28 44.71 45.21 44.75 47.15 50.24 49.29 48.63 46.72 52.56 54.69 56.01 57.26 58.37 57.62 57.81 58.25 58.61 58.89 59.02 57.86 57.75 54.91 54.72 53.81 51.69 51.50 51.95 52.16 51.81 52.22 52.26 53.80 53.37 52.64 50.31 49.80 49.75 48.54 48.69 48.79 48.37 49.31 49.27 50.01
41.30 40.77 40.90 41.16 44.47 44.09 42.15 40.88 45.20 49.04 50.11 52.63 52.36 54.18 56.02 56.68 56.72 57.05 56.92 57.08 58.20 58.79 58.93 58.56 57.33 55.35 55.51 54.55 52.25 51.85 51.60 50.92 50.24 50.08 49.97 51.36 53.08 52.31 51.18 51.10 49.87 48.76 47.54 47.51 48.18 48.27 48.23 49.39 51.28
39.71 45.15 45.02 43.68 40.31 36.20 42.47 33.44 39.70 45.27 46.41 50.46 52.05 53.61 55.17 56.49 57.52 57.73 56.56 56.66 58.43 59.68 59.24 57.72 57.01 55.46 54.34 53.69 51.20 49.97 48.78 47.97 48.41 49.41 49.41 49.61 51.04 50.94 51.30 50.79 50.10 48.87 47.92 46.86 48.92 50.94 50.14 50.32 47.63
43.82 46.45 44.25 43.74 38.71 36.11 39.32 35.70 38.96 44.12 44.27 48.26 51.85 54.56 55.18 56.85 57.02 57.44 58.13 59.17 59.23 59.15 57.52 57.02 56.14 54.26 53.46 52.12 51.56 50.61 49.31 49.08 49.59 48.94 47.99 47.26 48.91 49.54 50.58 49.95 49.30 48.14 47.45 47.40 48.99 47.69 49.75 47.29 47.74
48.03 44.66 42.48 39.42 36.67 32.98 36.55 36.76 36.42 40.52 44.64 49.28 52.49 54.66 55.87 56.51 57.80 58.78 59.31 58.97 56.96 56.82 56.60 55.60 54.76 53.12 53.02 54.28 52.18 50.08 48.67 47.59 46.72 46.30 46.75 49.26 49.36 48.30 48.70 49.20 48.53 47.40 46.95 46.98 47.33 46.60 46.30 45.25 44.78
45.19 38.98 32.19 32.72 31.89 32.01 38.88 37.86 38.76 44.67 48.60 51.09 51.84 53.67 55.20 56.62 56.73 57.77 57.20 51.85 50.91 50.39 50.39 52.37 49.61 48.38 48.92 48.94 49.18 48.28 47.61 47.64 48.25 48.89 49.37 49.13 47.63 46.05 47.00 47.45 47.56 46.66 48.58 49.95 46.32 45.00 44.98 44.98 47.67
41.07 38.49 33.39 29.19 29.01 32.55 39.78 34.61 38.43 47.38 51.68 53.42 53.79 53.81 54.02 51.70 50.03 49.02 48.58 48.05 47.69 48.22 48.64 48.11 47.59 46.93 47.00 47.47 47.50 47.79 47.62 47.49 47.40 48.72 48.92 47.90 45.28 45.84 46.86 47.71 47.45 48.32 50.05 48.36 46.01 46.80 47.06 47.42 48.55
41.71 37.47 39.38 35.25 34.02 31.10 34.83 39.55 44.03 45.94 46.48 47.31 46.68 46.62 44.87 45.22 45.52 45.63 46.10 46.91 47.43 46.84 46.84 45.71 45.21 45.31 45.99 45.87 46.50 46.95 46.90 46.56 45.91 46.50 46.70 45.36 45.74 47.36 47.67 45.87 46.03 46.27 46.41 46.52 45.92 44.74 46.63 45.09 46.12
44.47 45.22 36.80 35.51 29.00 28.38 33.56 36.59 36.81 39.93 41.19 42.45 42.96 42.21 42.69 43.72 43.49 44.34 45.27 45.83 45.49 44.04 43.82 43.78 43.50 43.65 44.41 44.66 45.16 46.56 45.98 46.16 45.41 45.26 44.49 45.10 45.24 45.12 44.85 45.27 45.61 45.11 47.02 46.25 44.38 46.47 48.05 47.77 48.22
42.72 40.91 40.01 38.13 35.68 30.45 28.56 33.17 40.96 41.11 41.55 39.61 39.82 41.35 42.21 42.61 43.23 44.52 44.24 44.14 45.19 43.49 42.28 42.77 43.03 43.20 44.21 44.27 44.31 44.23 44.28 44.85 44.49 44.22 44.26 44.47 44.56 44.90 44.82 45.23 44.99 44.88 45.69 45.78 46.29 47.11 48.04 47.59 47.54
45.43 41.62 39.60 34.80 34.17 34.35 32.39 32.84 44.13 42.22 41.52 41.73 41.92 42.91 42.93 42.77 44.75 44.29 42.88 43.03 41.94 40.69 41.01 41.44 42.43 42.94 43.57 43.98 44.28 43.70 43.72 43.74 42.97 43.29 44.05 44.34 44.61 45.23 45.23 45.39 45.11 45.41 46.41 44.53 46.82 47.31 47.47 47.20 46.73
MSLP
1010.48 1010.35 1010.48 1010.94 1012.16 1013.37 1014.90 1015.38 1014.58 1014.70 1015.48 1016.72 1016.55 1016.48 1016.36 1015.52 1014.54 1014.09 1013.86 1013.75 1014.08 1014.64 1014.48 1014.70 1014.74 1014.77 1014.76 1014.72 1014.92 1015.13 1015.26 1015.32 1015.35 1015.34 1015.37 1015.46 1015.54 1015.63 1015.57 1015.61 1015.69 1015.69 1015.68 1015.64 1015.56 1015.44 1015.32 1015.27 1015.22
1010.30 1010.17 1010.60 1011.36 1012.71 1014.36 1015.43 1014.76 1014.31 1014.03 1013.76 1014.19 1014.86 1016.31 1016.06 1015.64 1014.82 1013.59 1013.94 1013.59 1013.94 1014.60 1014.92 1014.83 1014.77 1014.84 1015.12 1015.20 1015.22 1015.37 1015.52 1015.67 1015.78 1015.73 1015.75 1015.81 1015.79 1015.88 1015.84 1015.80 1015.81 1015.76 1015.72 1015.67 1015.59 1015.43 1015.31 1015.19 1015.15
1010.01 1009.84 1010.96 1012.14 1013.71 1014.33 1014.70 1014.42 1014.03 1013.76 1013.62 1014.26 1014.69 1014.89 1014.15 1014.05 1013.96 1013.58 1013.59 1013.56 1014.37 1014.80 1015.16 1014.91 1014.92 1015.01 1015.25 1015.48 1015.57 1015.62 1015.72 1015.81 1015.94 1015.92 1015.90 1015.99 1015.96 1016.03 1016.00 1015.97 1016.03 1015.99 1015.88 1015.72 1015.59 1015.48 1015.31 1015.19 1014.99
1009.89 1010.50 1011.79 1012.41 1013.21 1013.38 1013.40 1013.45 1013.70 1013.88 1013.45 1014.03 1013.66 1013.41 1013.22 1013.53 1013.89 1013.72 1014.37 1014.56 1014.79 1014.84 1015.08 1015.05 1015.19 1015.29 1015.35 1015.56 1015.76 1015.77 1015.72 1015.90 1016.10 1016.14 1016.11 1016.09 1016.09 1016.25 1016.21 1016.12 1016.13 1016.10 1015.99 1015.87 1015.76 1015.61 1015.45 1015.33 1015.18
1010.37 1011.49 1012.60 1013.05 1012.90 1012.59 1012.59 1012.53 1012.70 1012.87 1012.78 1012.57 1012.69 1013.28 1013.58 1013.81 1013.77 1014.12 1014.66 1014.95 1014.96 1015.24 1015.34 1015.20 1015.30 1015.47 1015.40 1015.64 1015.86 1015.93 1016.02 1016.08 1016.19 1016.32 1016.32 1016.31 1016.27 1016.32 1016.37 1016.31 1016.15 1016.06 1015.98 1015.88 1015.82 1015.65 1015.41 1015.28 1015.13
1011.04 1012.16 1013.20 1013.37 1012.72 1012.11 1012.42 1012.30 1012.72 1012.50 1011.92 1011.79 1012.20 1012.97 1013.91 1014.16 1014.06 1014.54 1014.65 1014.77 1014.92 1015.23 1015.35 1015.32 1015.44 1015.66 1015.78 1015.87 1016.15 1016.13 1016.34 1016.36 1016.43 1016.45 1016.48 1016.51 1016.59 1016.62 1016.73 1016.66 1016.45 1016.28 1016.31 1016.28 1016.22 1015.96 1015.70 1015.48 1015.27
1011.09 1012.38 1013.06 1013.06 1012.33 1011.68 1011.27 1011.63 1011.95 1012.00 1011.65 1011.81 1011.73 1013.17 1013.93 1014.09 1014.13 1014.28 1014.79 1015.05 1014.99 1014.96 1015.30 1015.62 1015.68 1015.75 1016.07 1016.11 1016.45 1016.55 1016.65 1016.68 1016.77 1016.83 1016.85 1016.97 1017.02 1016.95 1016.82 1016.78 1016.76 1016.62 1016.55 1016.58 1016.40 1016.17 1015.97 1015.74 1015.51
1010.89 1012.03 1012.72 1012.42 1011.91 1010.75 1010.39 1010.90 1010.83 1011.37 1011.42 1011.20 1011.47 1012.55 1013.50 1013.43 1014.12 1014.53 1015.06 1015.31 1015.44 1015.52 1015.61 1016.07 1016.11 1016.24 1016.58 1016.81 1016.84 1017.02 1017.04 1017.02 1017.08 1017.14 1017.13 1017.23 1017.15 1017.02 1016.91 1016.94 1016.95 1016.91 1016.81 1016.75 1016.62 1016.33 1016.10 1015.91 1015.69
1010.47 1011.62 1012.08 1011.43 1011.23 1009.99 1009.88 1010.30 1010.53 1010.49 1010.68 1011.06 1011.30 1011.60 1011.81 1013.03 1014.15 1014.79 1015.32 1015.83 1015.96 1016.13 1016.29 1016.27 1016.49 1016.69 1016.99 1016.96 1017.04 1017.17 1017.37 1017.38 1017.16 1017.28 1017.35 1017.46 1017.57 1017.45 1017.38 1017.36 1017.27 1017.12 1017.00 1016.80 1016.67 1016.38 1016.15 1016.01 1015.89
1010.48 1011.19 1010.69 1010.22 1009.82 1009.50 1009.58 1009.88 1010.01 1010.15 1010.49 1010.86 1011.26 1011.55 1012.33 1013.53 1014.37 1014.93 1015.26 1015.86 1016.18 1016.32 1016.42 1016.55 1016.68 1017.01 1017.15 1017.18 1017.53 1017.70 1017.79 1017.71 1017.75 1017.87 1017.89 1018.00 1018.00 1017.76 1017.74 1017.63 1017.52 1017.38 1017.09 1016.90 1016.78 1016.51 1016.31 1016.19 1015.99
1010.04 1010.08 1009.56 1008.79 1008.44 1008.67 1009.09 1009.59 1009.37 1009.36 1010.25 1009.94 1010.58 1011.70 1012.62 1013.73 1014.54 1014.95 1015.28 1015.62 1016.02 1016.32 1016.49 1016.73 1016.91 1017.11 1017.34 1017.63 1017.87 1018.11 1018.23 1018.30 1018.37 1018.36 1018.44 1018.47 1018.28 1018.20 1018.09 1018.01 1017.88 1017.65 1017.29 1017.17 1016.94 1016.74 1016.53 1016.35 1016.09
1009.69 1008.94 1008.97 1007.93 1007.46 1008.16 1008.61 1008.99 1009.21 1009.14 1008.85 1008.82 1010.05 1010.52 1011.94 1013.11 1013.72 1014.20 1014.89 1015.34 1015.90 1016.40 1016.72 1016.82 1016.74 1016.89 1017.15 1017.55 1017.82 1018.02 1018.19 1018.29 1018.48 1018.66 1018.74 1018.63 1018.64 1018.61 1018.44 1018.24 1018.11 1017.82 1017.76 1017.54 1017.28 1017.04 1016.64 1016.34 1016.06
1009.34 1008.89 1008.02 1007.59 1007.09 1007.52 1008.18 1008.28 1008.65 1008.82 1008.87 1009.19 1010.25 1011.19 1012.06 1013.05 1013.88 1014.43 1015.06 1015.33 1015.68 1016.21 1016.64 1016.57 1016.52 1016.65 1016.78 1017.17 1017.69 1017.97 1018.24 1018.44 1018.74 1018.90 1018.87 1018.79 1018.88 1018.87 1018.61 1018.47 1018.25 1018.19 1018.04 1017.80 1017.46 1017.05 1016.66 1016.30 1015.84
1009.32 1008.87 1008.22 1007.53 1007.21 1007.49 1007.82 1008.50 1008.33 1008.58 1008.75 1009.71 1010.53 1011.41 1012.16 1012.87 1013.49 1014.56 1015.31 1015.51 1015.53 1015.96 1016.43 1016.63 1016.69 1016.72 1016.92 1017.36 1017.68 1018.18 1018.25 1018.40 1018.70 1018.90 1018.89 1018.77 1018.90 1018.91 1018.74 1018.64 1018.56 1018.38 1018.07 1017.67 1017.35 1016.99 1016.63 1016.29 1015.82
1009.28 1009.19 1008.50 1007.93 1007.96 1007.84 1007.59 1008.49 1008.39 1007.67 1008.65 1009.87 1010.68 1011.31 1012.12 1012.73 1013.46 1013.58 1014.28 1015.24 1015.25 1015.84 1016.33 1016.72 1017.10 1017.39 1017.56 1017.75 1017.97 1018.23 1018.40 1018.65 1018.82 1018.91 1018.89 1018.91 1018.89 1018.85 1018.84 1018.82 1018.61 1018.30 1017.95 1017.60 1017.18 1016.83 1016.49 1016.23 1015.67
1009.86 1009.81 1009.63 1008.59 1007.76 1007.47 1008.17 1008.54 1008.17 1008.38 1009.09 1010.39 1011.28 1011.75 1012.26 1012.89 1013.31 1014.31 1014.89 1015.32 1015.85 1016.16 1016.82 1017.10 1017.37 1017.41 1017.61 1017.79 1017.99 1018.15 1018.44 1018.52 1018.77 1018.90 1018.95 1019.00 1018.98 1018.91 1018.87 1018.82 1018.62 1018.29 1018.07 1017.74 1017.40 1017.00 1016.58 1016.19 1015.81
1011.01 1010.71 1010.23 1008.95 1008.20 1008.44 1008.33 1008.69 1008.31 1008.60 1009.27 1010.42 1011.02 1011.97 1012.77 1013.64 1014.43 1014.87 1015.43 1015.86 1016.50 1016.75 1016.84 1017.18 1017.37 1017.55 1017.67 1017.87 1017.99 1018.30 1018.51 1018.54 1018.64 1018.82 1018.95 1018.91 1018.89 1018.84 1018.84 1018.78 1018.61 1018.23 1017.99 1017.75 1017.42 1017.05 1016.70 1016.28 1015.66
1011.34 1011.08 1010.54 1010.03 1009.04 1008.98 1009.04 1008.93 1009.21 1009.67 1009.80 1010.75 1011.33 1012.12 1013.17 1013.93 1014.61 1015.66 1016.46 1017.03 1017.65 1017.94 1017.85 1017.57 1018.12 1018.14 1018.06 1018.22 1018.46 1018.71 1018.77 1018.82 1019.02 1019.16 1019.18 1018.99 1018.89 1018.73 1018.82 1018.66 1018.48 1018.24 1017.99 1017.67 1017.36 1016.97 1016.42 1015.94 1015.39
1011.15 1011.09 1010.99 1010.41 1009.78 1009.77 1010.75 1010.95 1011.44 1011.43 1011.58 1012.31 1012.88 1013.10 1013.59 1014.81 1015.65 1016.37 1016.99 1017.48 1017.67 1018.13 1018.58 1018.64 1018.74 1018.75 1018.46 1018.76 1019.12 1019.15 1019.28 1019.22 1019.18 1019.12 1018.99 1019.06 1018.86 1018.59 1018.64 1018.55 1018.37 1018.15 1018.04 1017.60 1017.18 1016.75 1016.31 1015.71 1015.07
1010.79 1011.00 1011.11 1010.75 1010.34 1010.60 1011.56 1012.40 1012.49 1012.54 1013.12 1013.30 1012.98 1013.49 1014.34 1015.20 1016.03 1016.71 1017.25 1017.57 1017.98 1018.40 1018.85 1019.02 1018.87 1018.86 1018.96 1018.88 1019.00 1019.04 1019.06 1019.05 1019.07 1019.10 1019.02 1018.97 1018.77 1018.62 1018.53 1018.42 1018.30 1018.09 1017.89 1017.60 1017.18 1016.73 1016.43 1015.79 1015.15
1010.92 1011.02 1011.17 1011.42 1011.30 1011.74 1012.41 1013.71 1013.73 1013.58 1013.85 1013.60 1013.45 1013.85 1014.78 1015.64 1016.39 1016.92 1017.60 1018.20 1018.71 1019.20 1019.09 1018.97 1018.76 1019.22 1019.15 1019.00 1019.01 1018.83 1019.13 1019.32 1019.39 1019.33 1019.29 1018.99 1018.76 1018.58 1018.39 1018.20 1018.11 1018.05 1017.93 1017.75 1017.36 1016.80 1016.51 1015.73 1015.00
1010.71 1010.80 1011.26 1011.78 1012.39 1013.04 1013.32 1014.98 1015.23 1015.15 1014.91 1014.91 1014.99 1015.10 1015.76 1016.42 1017.22 1017.90 1018.46 1018.90 1019.09 1019.08 1019.57 1019.10 1019.20 1019.41 1019.42 1019.12 1019.01 1019.18 1019.43 1019.88 1019.84 1019.75 1019.49 1019.15 1018.84 1018.63 1018.35 1018.14 1017.99 1017.86 1017.70 1017.54 1017.23 1016.70 1016.32 1015.88 1015.29
1010.92 1011.15 1011.99 1012.43 1013.38 1014.21 1014.83 1015.44 1016.01 1015.73 1015.71 1016.28 1016.49 1016.64 1016.83 1017.27 1017.77 1018.53 1019.11 1019.59 1019.38 1019.98 1020.58 1019.70 1020.00 1019.66 1019.60 1019.46 1019.53 1019.59 1020.04 1020.30 1020.13 1019.86 1019.65 1019.42 1019.11 1018.73 1018.45 1018.22 1018.00 1017.82 1017.57 1017.36 1017.07 1016.61 1016.12 1015.85 1015.60
1011.09 1011.86 1013.05 1014.06 1014.81 1016.05 1015.97 1016.35 1016.98 1016.61 1016.56 1017.14 1017.51 1017.49 1018.02 1017.96 1018.46 1019.09 1019.39 1020.22 1019.67 1019.73 1020.35 1019.95 1020.00 1020.56 1020.42 1019.98 1019.82 1019.97 1020.39 1020.57 1020.34 1020.05 1019.88 1019.50 1019.26 1018.91 1018.47 1018.11 1017.81 1017.58 1017.40 1017.06 1016.84 1016.45 1015.98 1015.53 1015.25
1011.64 1013.29 1014.86 1016.06 1016.74 1017.02 1016.49 1016.77 1016.93 1016.55 1016.58 1017.14 1017.93 1018.31 1018.55 1018.83 1019.23 1019.71 1020.04 1020.35 1020.88 1021.27 1020.98 1020.71 1020.95 1021.18 1020.89 1020.44 1020.40 1020.64 1020.73 1020.59 1020.55 1020.35 1020.11 1019.76 1019.44 1019.05 1018.57 1018.05 1017.70 1017.53 1016.94 1016.51 1016.52 1016.23 1015.78 1015.33 1014.96
1012.78 1013.75 1015.49 1016.74 1017.91 1017.59 1016.96 1016.98 1016.85 1016.73 1017.09 1017.59 1018.29 1019.17 1019.49 1019.91 1020.31 1020.81 1021.25 1021.65 1021.57 1021.43 1021.53 1021.73 1021.82 1021.87 1021.52 1021.22 1021.30 1021.07 1020.84 1020.95 1020.86 1020.60 1020.25 1019.99 1019.51 1018.91 1018.35 1017.96 1017.65 1017.21 1016.66 1016.45 1016.27 1015.98 1015.59 1015.14 1014.80
1013.17 1014.33 1015.31 1016.58 1018.05 1018.41 1017.94 1017.45 1017.22 1017.30 1018.04 1018.39 1019.04 1019.80 1020.60 1020.93 1021.25 1021.45 1021.91 1022.11 1022.50 1022.95 1022.70 1022.50 1022.62 1022.41 1022.19 1022.19 1021.53 1021.19 1021.18 1021.01 1020.80 1020.47 1020.15 1019.74 1019.11 1018.59 1018.31 1018.03 1017.72 1017.19 1016.81 1016.39 1016.09 1015.73 1015.25 1014.86 1014.55
1013.36 1014.51 1015.72 1017.18 1018.55 1019.04 1018.54 1018.14 1017.98 1018.53 1019.07 1019.54 1020.16 1020.98 1021.78 1022.31 1022.59 1022.84 1022.91 1023.15 1023.06 1023.20 1023.28 1022.98 1023.05 1022.95 1022.43 1021.98 1021.56 1021.31 1021.16 1020.95 1020.65 1020.21 1019.72 1019.27 1018.90 1018.66 1018.39 1017.95 1017.51 1017.12 1016.73 1016.34 1015.93 1015.46 1015.08 1014.74 1014.39
1014.47 1015.29 1016.47 1017.70 1018.74 1019.46 1019.37 1018.97 1018.55 1018.88 1019.65 1020.42 1021.24 1022.05 1022.70 1023.31 1023.69 1024.62 1024.84 1024.26 1023.92 1023.70 1023.81 1023.67 1023.29 1022.86 1022.42 1022.04 1021.76 1021.55 1021.20 1020.81 1020.41 1019.96 1019.52 1019.14 1018.78 1018.44 1018.15 1017.84 1017.46 1017.06 1016.59 1016.22 1015.85 1015.58 1015.14 1014.77 1014.38
1015.08 1016.06 1017.04 1018.49 1019.24 1019.62 1019.69 1019.34 1018.94 1019.31 1020.18 1020.94 1021.88 1022.66 1023.26 1023.52 1023.85 1023.47 1024.79 1025.19 1024.74 1024.20 1023.89 1023.58 1023.25 1022.92 1022.52 1022.16 1021.80 1021.45 1021.08 1020.64 1020.23 1019.75 1019.21 1018.87 1018.48 1018.09 1017.88 1017.58 1017.32 1017.01 1016.59 1016.29 1015.99 1015.68 1015.30 1014.89 1014.41
Wind_Speed
2 4 3 3 5 7 2 1 2 2 6 6 11 7 14 20 9 5 3 7 10 6 6 7 11 13 13 13 13 12 11 11 11 11 11 10 10 9 9 8 7 7 7 6 7 7 7 8 8
1 3 4 3 7 5 3 4 6 5 12 23 23 12 10 16 10 6 7 10 10 7 4 5 12 13 13 12 11 10 10 9 9 9 9 9 9 8 8 7 6 6 6 7 8 8 9 9 10
3 2 4 5 4 5 6 6 6 4 13 5 8 13 10 2 2 8 4 13 10 7 4 8 12 12 13 12 11 10 9 8 8 8 9 8 8 7 7 6 7 8 9 9 9 10 11 12 12
1 5 5 6 2 3 8 10 6 3 4 9 7 6 5 6 5 5 11 11 10 7 6 10 12 12 12 12 11 9 9 8 8 8 8 8 9 8 8 9 9 11 11 12 12 12 12 13 14
4 4 5 3 3 2 3 9 11 8 4 3 3 5 5 2 14 14 13 11 11 6 4 7 11 11 12 12 11 10 9 10 9 10 10 10 13 14 12 14 15 15 15 15 15 15 14 13 14
5 4 5 1 4 2 4 5 5 6 4 3 5 5 1 7 14 11 11 11 9 9 6 6 11 11 10 11 11 11 12 15 16 16 17 18 15 15 15 15 15 16 16 17 16 16 17 16 16
6 5 3 4 4 3 5 11 7 8 7 3 7 5 1 4 8 10 9 7 7 9 7 5 5 9 11 11 10 10 12 14 15 14 15 15 14 14 14 16 17 17 15 17 17 16 15 15 15
6 5 3 3 5 8 6 8 7 8 6 4 6 8 7 6 9 9 7 6 5 5 5 5 6 6 6 5 9 9 11 13 13 14 14 15 15 16 15 12 15 16 15 15 15 16 15 16 16
4 5 2 5 6 7 3 4 2 2 8 4 8 6 5 15 13 9 8 5 5 6 5 6 6 7 5 5 6 8 11 11 13 12 13 10 5 7 10 12 14 14 15 16 17 17 17 18 16
5 4 6 4 4 6 3 6 9 8 5 2 5 7 16 17 15 15 14 11 5 6 5 5 6 6 4 5 6 6 5 5 5 5 6 5 6 6 6 9 12 13 13 14 15 15 16 12 5
4 4 5 6 9 8 6 7 4 9 6 9 16 14 18 16 14 14 12 7 7 5 4 6 7 6 7 6 4 3 2 2 3 6 6 5 4 4 4 3 3 4 9 4 6 6 4 6 4
2 7 4 9 7 6 6 8 4 7 7 12 19 23 20 20 16 16 12 13 10 8 6 7 8 8 8 5 4 4 4 3 3 4 4 4 4 5 5 4 5 4 4 6 5 4 5 6 5
4 7 9 7 6 3 7 7 8 7 5 11 15 17 19 17 13 10 10 11 12 13 8 8 7 7 7 8 5 5 5 4 5 5 6 5 5 5 4 4 4 4 4 4 5 5 4 6 8
4 6 10 2 4 4 9 3 8 8 11 12 19 18 18 20 15 14 13 14 12 12 9 7 8 7 7 6 7 5 5 5 5 5 4 6 4 4 4 4 5 4 4 5 4 4 5 5 5
4 6 8 6 1 3 8 0 6 11 16 14 17 19 19 17 18 23 21 16 15 11 9 8 8 7 8 9 7 5 5 5 5 4 6 6 4 4 3 3 3 4 5 6 5 5 5 5 5
5 6 6 6 2 3 4 9 7 7 12 10 13 14 17 19 21 17 14 13 10 11 10 8 8 9 8 8 6 5 5 4 4 4 3 4 4 4 3 4 4 4 4 4 4 4 5 5 5
8 2 5 10 5 2 6 8 8 8 13 10 13 15 15 14 9 11 11 10 9 8 10 8 7 7 8 7 6 5 5 4 4 4 4 4 4 3 2 2 4 5 4 4 4 4 3 4 6
4 5 6 5 7 2 4 7 5 2 9 8 11 12 13 13 11 7 7 7 6 6 4 7 4 6 6 5 5 4 4 4 3 3 2 3 3 4 3 3 4 4 4 4 4 5 5 5 7
3 1 3 6 6 4 7 9 9 8 10 5 2 4 8 8 7 8 9 8 7 6 5 3 5 2 4 3 4 3 1 1 1 2 3 4 4 4 3 3 4 4 4 5 6 4 5 6 4
1 3 4 6 6 8 8 9 5 11 4 5 8 8 9 9 10 10 7 5 3 5 2 4 4 3 2 3 2 2 2 2 1 2 4 4 4 4 3 4 4 4 4 6 6 5 4 5 5
2 5 1 2 4 3 4 7 9 6 6 12 8 6 9 13 12 11 9 4 7 4 7 6 6 4 3 4 2 1 2 1 2 2 3 3 5 5 5 5 3 4 3 4 6 5 5 6 5
1 2 1 1 4 2 4 4 3 8 6 13 11 10 9 8 9 6 5 5 4 7 4 1 4 4 4 6 2 2 1 1 2 2 2 5 5 6 6 5 5 5 4 5 5 5 5 6 7
4 4 4 2 3 3 6 5 6 6 7 8 8 10 9 10 12 8 5 5 5 7 4 3 2 4 7 3 4 2 2 2 2 3 6 5 5 6 6 5 5 5 4 5 5 6 8 3 4
2 4 7 5 4 4 4 3 6 4 4 2 3 9 8 11 11 8 7 3 7 4 6 5 3 6 6 5 6 6 4 3 4 5 4 4 3 4 6 6 5 5 5 5 4 5 6 5 4
7 8 5 6 6 6 3 3 7 4 3 7 8 8 9 8 7 5 6 8 7 8 8 7 7 6 7 7 7 5 4 4 5 6 5 6 5 4 6 5 5 5 6 5 5 5 6 5 5
4 6 7 4 3 6 4 3 3 1 4 6 6 6 7 6 7 12 11 8 10 12 11 9 8 7 7 7 5 4 6 4 4 5 5 4 4 4 5 5 6 7 6 5 5 4 4 5 5
2 2 1 6 2 2 3 1 4 6 5 7 9 11 10 11 11 12 9 9 8 6 6 7 6 8 6 5 4 5 4 5 5 6 5 4 4 5 6 6 6 6 6 6 6 4 6 5 5
3 3 2 4 1 3 3 3 5 4 6 8 10 10 9 10 9 8 8 6 5 5 5 7 6 4 4 6 5 4 6 6 5 4 6 6 6 5 6 6 6 7 6 5 6 6 6 6 5
5 4 5 4 5 5 2 6 2 6 6 10 8 7 8 7 7 8 7 5 4 4 4 5 5 6 6 6 5 6 6 6 6 5 6 6 5 6 6 6 6 6 6 5 5 6 7 7 6
1 3 4 6 4 0 4 5 4 8 10 11 10 9 6 6 5 7 2 5 4 3 4 5 6 6 6 6 6 6 6 6 6 6 6 6 7 6 6 6 6 5 5 5 5 6 7 7 6
Wind_Direction
318 215 155 52 63 66 56 327 279 136 110 106 74 339 338 301 287 194 169 149 128 125 129 125 107 104 101 99 96 93 89 89 90 89 86 83 79 74 71 64 51 39 26 15 3 352 343 336 329
292 156 54 79 76 83 251 203 180 160 157 155 130 138 213 265 253 133 141 147 126 129 120 122 112 108 103 101 98 94 91 87 82 80 79 77 76 70 65 57 46 31 13 359 348 341 334 328 323
239 49 77 86 120 142 161 220 194 215 169 78 129 201 190 201 173 148 119 126 116 110 133 124 114 108 107 104 101 97 92 90 86 82 77 69 64 59 51 40 24 13 2 352 343 336 328 323 320
75 9 34 79 212 193 149 191 164 211 244 211 221 124 85 193 181 126 111 121 125 133 144 127 120 118 117 112 105 99 96 88 76 72 71 65 56 44 37 34 19 6 358 353 346 334 326 322 320
38 54 53 62 300 219 211 192 168 167 227 214 225 113 93 56 114 120 133 138 136 128 124 120 125 121 116 112 105 97 86 79 80 71 61 60 57 45 51 40 35 28 19 10 5 357 348 337 330
48 95 62 122 263 243 166 161 180 193 201 342 97 83 126 148 132 143 135 142 150 137 140 138 131 123 120 117 112 101 85 82 78 75 69 68 63 58 52 44 36 35 33 38 30 24 21 17 7
114 85 167 175 252 290 204 154 197 200 136 147 135 98 74 200 145 132 141 135 140 140 136 132 126 129 131 117 106 88 82 84 80 77 71 68 67 58 53 40 36 34 40 31 24 20 19 15 7
104 92 114 207 214 264 192 154 175 178 174 118 160 164 191 184 141 120 118 122 121 107 94 94 70 67 77 84 97 87 82 83 83 77 73 64 54 51 45 41 35 37 35 27 22 17 12 6 3
126 66 236 224 176 258 155 118 178 195 125 223 169 146 166 136 128 127 122 121 118 105 94 99 88 73 92 90 71 66 75 73 71 66 65 52 40 38 39 32 29 26 22 17 12 10 7 4 356
95 136 230 202 211 267 177 142 178 147 137 225 94 87 126 144 151 154 156 156 156 136 116 111 106 110 80 81 71 76 69 53 55 62 60 53 42 29 32 23 22 12 10 6 0 1 2 359 340
181 212 217 258 231 190 176 152 236 125 187 185 163 150 151 160 171 165 155 145 135 128 109 128 116 109 99 81 73 66 61 55 50 45 42 38 35 9 9 7 358 355 355 356 353 345 351 339 339
288 261 210 267 220 152 178 138 195 174 221 164 163 164 160 172 175 163 148 141 131 123 121 134 124 120 116 116 97 80 75 47 41 37 43 34 16 4 354 356 346 349 351 346 349 337 334 332 327
11 296 307 261 250 174 130 157 181 209 196 151 156 153 168 173 164 147 140 137 138 133 150 144 134 125 131 106 105 88 81 66 56 50 36 34 21 5 350 354 348 351 345 344 329 326 328 329 331
269 268 286 71 243 176 153 155 125 220 179 135 153 166 170 174 160 138 159 160 150 145 148 149 124 112 99 96 88 93 81 74 72 61 45 47 48 28 24 5 355 348 335 318 309 308 311 313 309
271 321 345 5 328 276 129 299 219 182 178 144 162 173 172 169 160 168 167 166 154 150 142 123 110 108 102 107 102 97 92 97 104 86 56 61 53 39 26 1 336 309 315 317 322 322 321 319 310
22 49 8 272 314 165 63 233 244 169 150 161 152 170 172 174 171 167 162 157 153 138 138 123 124 115 106 106 110 104 117 118 109 88 75 67 29 33 16 346 330 326 325 317 315 308 309 304 305
12 359 329 319 200 216 160 235 235 175 175 159 170 163 169 161 158 167 164 149 140 134 116 116 109 116 119 113 105 100 93 79 69 49 36 23 356 354 0 333 310 328 326 312 306 303 287 282 289
314 339 326 280 312 296 303 298 330 62 199 160 168 170 160 165 165 122 102 100 86 78 87 104 103 121 111 104 89 59 57 56 51 29 357 332 324 337 341 327 324 322 326 312 309 290 295 277 285
278 251 273 279 285 54 55 36 28 5 34 56 314 133 155 139 108 100 110 117 108 69 82 59 130 142 120 81 91 74 111 356 335 298 310 320 324 341 329 307 311 330 322 300 296 286 300 308 296
172 79 312 297 332 93 64 21 352 46 15 20 191 179 148 128 126 128 128 121 79 112 129 178 160 216 112 105 157 151 185 222 214 283 296 299 328 313 303 307 317 330 325 319 309 318 315 304 314
59 122 359 236 343 43 85 6 9 346 27 30 11 88 119 140 138 137 135 115 92 131 211 201 177 163 153 143 144 129 37 20 340 305 312 311 309 309 319 315 319 318 315 301 296 297 303 306 305
100 221 249 74 57 264 29 267 17 328 2 30 35 74 96 104 95 73 67 74 168 211 308 255 108 160 196 200 186 199 151 248 291 294 276 302 313 322 321 318 327 319 309 302 293 307 301 331 319
230 44 0 14 88 52 350 76 296 351 15 18 33 76 83 90 94 90 92 317 338 19 347 1 240 217 227 237 18 34 360 342 300 295 308 316 315 321 310 314 317 313 304 296 298 310 324 290 298
57 48 39 47 72 35 283 110 316 323 302 62 59 89 94 100 101 99 96 26 353 14 228 202 238 352 354 12 32 42 38 331 333 322 320 316 307 307 313 307 301 305 299 294 296 299 299 300 287
64 49 349 357 8 229 301 58 228 258 241 159 131 101 91 96 100 90 59 44 36 52 35 50 48 33 25 49 48 45 22 348 326 308 307 320 321 303 295 312 324 308 292 298 315 305 303 302 305
331 143 151 235 222 260 343 166 222 104 38 112 86 76 79 75 70 83 75 66 50 44 39 37 27 14 8 15 9 1 3 341 309 300 309 297 277 285 306 325 312 307 324 321 300 292 298 300 301
287 350 222 115 45 69 267 230 22 93 90 89 98 89 87 83 77 78 75 64 53 35 34 36 11 356 353 323 342 347 332 318 310 308 293 273 297 326 318 311 308 312 301 305 308 290 299 304 291
93 150 0 5 161 261 284 240 213 177 122 94 100 96 75 71 68 60 55 58 72 40 7 14 350 323 329 348 356 344 317 310 305 302 325 326 316 305 305 305 310 309 306 312 335 332 317 318 315
358 8 49 117 136 180 241 264 295 182 139 112 94 80 83 82 72 36 12 15 29 37 2 338 341 343 342 340 328 321 314 316 315 316 307 301 293 288 289 300 312 316 326 349 349 339 330 333 332
92 52 104 115 269 228 151 270 358 107 114 120 116 112 106 92 80 95 297 298 300 314 333 340 338 339 331 321 323 326 315 316 314 304 299 291 286 293 288 302 309 323 356 348 345 343 340 346 357